Location: Millers Ferry
(32.0990°N, 87.3680°W)
Time: 02:56:55
(UTC-05:00)

CSL-04 Rocket - Visible Passes

Search period start: 01 September 2015 00:00
Search period end: 11 September 2015 00:00
Orbit: 806 x 861 km, 98.9° (Epoch: 31 August)

Date Brightness Start Highest point End Pass type
(mag) Time Alt. Az. Time Alt. Az. Time Alt. Az.
01 Sep 5.2 05:01:16 10° NNE 05:06:03 35° E 05:10:53 10° SSE visible
02 Sep 5.8 04:44:57 10° NE 04:49:05 24° E 04:53:21 10° SSE visible
03 Sep 6.3 04:29:02 10° ENE 04:32:03 16° E 04:35:21 10° SE visible
04 Sep 3.6 05:50:39 10° N 05:55:55 72° WNW 06:01:10 10° SSW visible
05 Sep 3.8 05:33:48 10° NNE 05:39:05 78° ESE 05:44:22 10° S visible
06 Sep 4.5 05:17:05 10° NNE 05:22:13 52° E 05:27:21 10° S visible
07 Sep 5.2 05:00:33 10° NNE 05:05:18 34° E 05:10:06 10° SSE visible
08 Sep 5.9 04:44:15 10° NE 04:48:19 23° E 04:52:33 10° SSE visible
09 Sep 6.3 04:28:22 10° ENE 04:31:17 15° E 04:34:30 10° SE visible
10 Sep 3.6 05:49:54 10° N 05:55:10 74° WNW 06:00:26 10° SSW visible
